1545890400.47,6258,0.0,0.0,-7.09,-7.35,-7.65,0,*62
1545890401.74,6259,0.0,0.0,-7.09,-7.39,-7.61,0,*6B
1545890402.98,6260,0.0,0.0,-7.07,-7.39,-7.61,0,*6F
1545890404.19,6261,0.0,0.0,-7.07,-7.53,-7.77,0,*65
1545890405.39,6262,0.0,0.0,-7.07,-7.53,-7.87,0,*69
1545890406.63,6263,0.0,0.0,-7.09,-7.53,-7.73,0,*6D
1545890407.87,6264,0.0,0.0,-7.09,-7.53,-7.73,0,*6A
1545890409.11,6265,0.0,0.0,-7.09,-7.53,-7.91,0,*67
1545890410.32,6266,0.0,0.0,-7.07,-7.53,-8.03,0,*6E
1545890411.57,6267,0.0,0.0,-7.07,-7.61,-8.07,0,*6A
1545890414.08,6269,0.0,0.0,-7.09,-7.61,-7.91,0,*6A
1545890415.35,6270,0.0,0.0,-7.05,-7.35,-7.61,0,*60
1545890416.56,6271,0.0,0.0,-7.07,-7.53,-7.95,0,*68
1545890417.77,6272,0.0,0.0,-7.07,-7.53,-7.65,0,*64
1545890418.99,6273,0.0,0.0,-7.07,-7.53,-7.65,0,*65
1545890420.21,6274,0.0,0.0,-7.07,-7.49,-7.61,0,*6D
1545890421.45,6275,0.0,0.0,-7.07,-7.39,-7.61,0,*6B
1545890422.68,6276,0.0,0.0,-7.07,-7.39,-7.65,0,*6C
1545890423.9,6277,0.0,0.0,-7.07,-7.49,-7.65,0,*6A
1545890425.11,6278,0.0,0.0,-7.07,-7.49,-7.73,0,*62
1545890426.33,6279,0.0,0.0,-7.07,-7.53,-7.73,0,*68
1545890427.6,6280,0.0,0.0,-7.05,-7.43,-7.69,0,*66
1545890428.83,6281,0.0,0.0,-7.05,-7.31,-7.49,0,*60
1545890430.08,6282,0.0,0.0,-7.05,-7.19,-7.35,0,*62
1545890431.3,6283,0.0,0.0,-7.03,-7.23,-7.43,0,*6D
1545890432.56,6284,0.0,0.0,-7.05,-7.31,-7.73,0,*6C
1545890433.78,6285,0.0,0.0,-7.05,-7.49,-7.87,0,*69
1545890435.05,6286,0.0,0.0,-7.05,-7.57,-7.99,0,*6A
1545890436.31,6287,0.0,0.0,-7.05,-7.61,-7.99,0,*6E
1545890437.58,6288,0.0,0.0,-7.05,-7.69,-8.11,0,*66
1545890438.84,6289,0.0,0.0,-7.05,-7.57,-7.99,0,*65
1545890440.09,6290,0.0,0.0,-7.05,-7.57,-7.83,0,*66
1545890441.33,6291,0.0,0.0,-7.03,-7.43,-7.69,0,*60
1545890442.55,6292,0.0,0.0,-7.03,-7.43,-7.83,0,*67
1545890443.77,6293,0.0,0.0,-7.05,-7.49,-7.87,0,*6E
1545890444.99,6294,0.0,0.0,-7.03,-7.43,-7.83,0,*61
1545890446.21,6295,0.0,0.0,-7.03,-7.49,-7.73,0,*65
1545890447.47,6296,0.0,0.0,-7.05,-7.43,-7.73,0,*6A
1545890448.7,6297,0.0,0.0,-7.03,-7.43,-7.83,0,*62
1545890451.11,6299,0.0,0.0,-7.03,-7.49,-7.87,0,*62
1545890452.3,6300,0.0,0.0,-7.03,-7.49,-7.83,0,*67
1545890453.49,6301,0.0,0.0,-7.03,-7.49,-7.87,0,*62
1545890454.68,6302,0.0,0.0,-7.03,-7.49,-7.87,0,*61
1545890455.87,6303,0.0,0.0,-7.03,-7.49,-7.87,0,*60
1545890457.14,6304,0.0,0.0,-7.05,-7.61,-7.99,0,*64
1545890458.38,6305,0.0,0.0,-7.03,-7.61,-7.99,0,*63
1545890459.62,6306,0.0,0.0,-7.03,-7.69,-8.03,0,*64
1545890460.86,6307,0.0,0.0,-7.03,-7.61,-8.03,0,*6D
1545890462.07,6308,0.0,0.0,-7.03,-7.49,-7.91,0,*6C
1545890463.32,6309,0.0,0.0,-7.03,-7.61,-7.91,0,*67
1545890464.56,6310,0.0,0.0,-7.03,-7.57,-7.91,0,*6A
1545890465.81,6311,0.0,0.0,-7.03,-7.61,-7.99,0,*66
1545890467.02,6312,0.0,0.0,-6.99,-7.53,-7.99,0,*66
1545890468.29,6313,0.0,0.0,-7.01,-7.57,-7.99,0,*63
1545890469.55,6314,0.0,0.0,-7.01,-7.65,-7.95,0,*69
1545890470.8,6315,0.0,0.0,-7.01,-7.65,-7.87,0,*6B
1545890472.02,6316,0.0,0.0,-6.99,-7.57,-7.87,0,*69
1545890473.27,6317,0.0,0.0,-7.01,-7.57,-7.87,0,*68
1545890474.51,6318,0.0,0.0,-7.03,-7.57,-7.91,0,*62
1545890475.74,6319,0.0,0.0,-7.03,-7.57,-7.87,0,*64
1545890476.96,6320,0.0,0.0,-7.01,-7.53,-7.87,0,*68
1545890478.2,6321,0.0,0.0,-7.01,-7.57,-7.87,0,*6D
1545890479.45,6322,0.0,0.0,-7.01,-7.57,-7.87,0,*6E
1545890480.7,6323,0.0,0.0,-7.01,-7.57,-7.87,0,*6F
1545890481.92,6324,0.0,0.0,-7.01,-7.53,-7.87,0,*6C
1545890483.14,6325,0.0,0.0,-7.01,-7.53,-7.83,0,*69
1545890484.38,6326,0.0,0.0,-7.01,-7.57,-7.83,0,*6E
1545890485.58,6327,0.0,0.0,-6.99,-7.53,-7.83,0,*6B
1545890486.82,6328,0.0,0.0,-7.01,-7.57,-7.87,0,*64
1545890488.07,6329,0.0,0.0,-7.01,-7.57,-7.87,0,*65
1545890489.29,6330,0.0,0.0,-6.99,-7.53,-7.77,0,*66
1545890490.5,6331,0.0,0.0,-6.99,-7.53,-7.65,0,*64
1545890491.72,6332,0.0,0.0,-6.99,-7.53,-7.69,0,*6B
1545890492.96,6333,0.0,0.0,-6.99,-7.43,-7.69,0,*6B
1545890494.22,6334,0.0,0.0,-7.01,-7.43,-7.69,0,*6C
1545890495.48,6335,0.0,0.0,-7.01,-7.43,-7.69,0,*6D
1545890496.72,6336,0.0,0.0,-6.99,-7.43,-7.69,0,*6E
1545890497.99,6337,0.0,0.0,-7.01,-7.39,-7.65,0,*6E
1545890499.25,6338,0.0,0.0,-7.01,-7.43,-7.69,0,*60
1545890500.52,6339,0.0,0.0,-7.01,-7.43,-7.65,0,*6D
1545890501.78,6340,0.0,0.0,-7.01,-7.43,-7.65,0,*63
1545890503.01,6341,0.0,0.0,-6.99,-7.57,-7.83,0,*6F
1545890504.2,6342,0.0,0.0,-6.99,-7.53,-7.87,0,*6C
1545890507.91,6345,0.0,0.0,-7.01,-7.53,-7.65,0,*67
1545890509.13,6346,0.0,0.0,-6.99,-7.53,-7.65,0,*64
1545890510.37,6347,0.0,0.0,-7.01,-7.53,-7.69,0,*69
1545890511.61,6348,0.0,0.0,-6.99,-7.43,-7.69,0,*67
1545890512.85,6349,0.0,0.0,-6.99,-7.57,-7.77,0,*6C
1545890514.1,6350,0.0,0.0,-6.99,-7.57,-7.69,0,*6B
1545890515.33,6351,0.0,0.0,-7.01,-7.53,-7.69,0,*6E
1545890516.55,6352,0.0,0.0,-6.99,-7.53,-7.69,0,*6D
1545890517.76,6353,0.0,0.0,-6.99,-7.53,-7.69,0,*6C
1545890520.22,6355,0.0,0.0,-7.01,-7.57,-7.87,0,*6E
1545890521.45,6356,0.0,0.0,-6.99,-7.57,-7.87,0,*6D
1545890522.66,6357,0.0,0.0,-7.01,-7.53,-7.87,0,*68
1545890523.89,6358,0.0,0.0,-6.99,-7.57,-7.87,0,*63
1545890526.33,6360,0.0,0.0,-6.99,-7.65,-7.83,0,*6D
1545890527.56,6361,0.0,0.0,-6.99,-7.57,-7.87,0,*69
1545890528.78,6362,0.0,0.0,-6.99,-7.57,-7.87,0,*6A
1545890530.0,6363,0.0,0.0,-6.99,-7.65,-7.87,0,*6A
1545890532.39,6365,0.0,0.0,-6.99,-7.53,-7.87,0,*69
1545890533.58,6366,0.0,0.0,-6.95,-7.53,-7.83,0,*62
1545890534.77,6367,0.0,0.0,-6.95,-7.53,-7.83,0,*63
1545890535.97,6368,0.0,0.0,-6.95,-7.49,-7.83,0,*67
1545890537.19,6369,0.0,0.0,-6.99,-7.57,-7.83,0,*65
1545890538.44,6370,0.0,0.0,-7.01,-7.57,-7.83,0,*6D
1545890539.68,6371,0.0,0.0,-6.99,-7.57,-7.95,0,*6B
1545890540.92,6372,0.0,0.0,-6.99,-7.65,-7.95,0,*69
1545890542.16,6373,0.0,0.0,-6.99,-7.69,-8.07,0,*60
1545890543.38,6374,0.0,0.0,-6.99,-7.69,-7.87,0,*60
1545890544.6,6375,0.0,0.0,-6.99,-7.69,-7.87,0,*61
1545890545.82,6376,0.0,0.0,-6.99,-7.65,-7.87,0,*6E
1545890547.04,6377,0.0,0.0,-6.99,-7.65,-7.87,0,*6F
1545890548.26,6378,0.0,0.0,-6.95,-7.61,-7.83,0,*6C
1545890549.5,6379,0.0,0.0,-6.95,-7.61,-7.91,0,*6E
1545890550.74,6380,0.0,0.0,-6.99,-7.69,-7.99,0,*64
1545890551.98,6381,0.0,0.0,-6.99,-7.69,-7.99,0,*65
1545890553.23,6382,0.0,0.0,-7.01,-7.65,-7.87,0,*65
1545890554.46,6383,0.0,0.0,-6.99,-7.69,-7.95,0,*6B
1545890555.68,6384,0.0,0.0,-6.95,-7.61,-7.83,0,*6F
1545890556.93,6385,0.0,0.0,-6.93,-7.65,-7.83,0,*6C
1545890558.17,6386,0.0,0.0,-6.95,-7.65,-7.91,0,*6A
1545890559.41,6387,0.0,0.0,-6.95,-7.65,-8.03,0,*6F
1545890560.65,6388,0.0,0.0,-6.99,-7.77,-7.99,0,*63
1545890561.9,6389,0.0,0.0,-6.99,-7.77,-8.07,0,*6A
1545890563.13,6390,0.0,0.0,-6.95,-7.77,-7.95,0,*6A
1545890564.38,6391,0.0,0.0,-6.95,-7.77,-8.07,0,*6F
1545890565.63,6392,0.0,0.0,-6.99,-7.77,-8.07,0,*60
1545890566.85,6393,0.0,0.0,-6.99,-7.83,-8.07,0,*6A
1545890569.31,6395,0.0,0.0,-6.99,-7.77,-8.07,0,*67
1545890570.53,6396,0.0,0.0,-6.99,-7.83,-8.07,0,*6F
1545890571.75,6397,0.0,0.0,-6.99,-7.83,-7.99,0,*66
1545890572.97,6398,0.0,0.0,-7.01,-7.83,-7.87,0,*66
1545890574.18,6399,0.0,0.0,-6.99,-7.77,-7.87,0,*6C
1545890575.4,6400,0.0,0.0,-6.99,-7.77,-7.87,0,*6B
1545890576.62,6401,0.0,0.0,-6.99,-7.69,-7.87,0,*65
1545890577.84,6402,0.0,0.0,-6.99,-7.65,-7.87,0,*6A
1545890579.08,6403,0.0,0.0,-6.99,-7.69,-7.95,0,*64
1545890581.56,6405,0.0,0.0,-6.99,-7.77,-7.99,0,*61
1545890582.8,6406,0.0,0.0,-6.99,-7.77,-8.07,0,*6A
1545890584.05,6407,0.0,0.0,-6.99,-7.77,-8.07,0,*6B
1545890585.27,6408,0.0,0.0,-6.99,-7.83,-8.07,0,*6F
1545890587.75,6410,0.0,0.0,-6.95,-7.77,-8.03,0,*65
1545890588.98,6411,0.0,0.0,-6.95,-7.77,-8.03,0,*64
1545890590.2,6412,0.0,0.0,-6.99,-7.83,-8.11,0,*63
1545890591.41,6413,0.0,0.0,-6.99,-7.83,-7.99,0,*6D
1545890596.3,6417,0.0,0.0,-6.99,-7.83,-7.99,0,*69
1545890597.51,6418,0.0,0.0,-6.99,-7.87,-7.99,0,*62
1545890598.74,6419,0.0,0.0,-6.99,-7.87,-8.07,0,*6B
1545890599.95,6420,0.0,0.0,-6.99,-7.87,-7.99,0,*69
1545890601.17,6421,0.0,0.0,-6.99,-7.83,-8.07,0,*64
1545890602.41,6422,0.0,0.0,-6.99,-7.77,-7.99,0,*64
1545890603.63,6423,0.0,0.0,-6.99,-7.83,-7.99,0,*6E
1545890604.84,6424,0.0,0.0,-6.99,-7.77,-7.87,0,*6D
1545890606.06,6425,0.0,0.0,-6.99,-7.77,-7.87,0,*6C
1545890607.28,6426,0.0,0.0,-6.99,-7.77,-7.87,0,*6F
1545890608.5,6427,0.0,0.0,-6.95,-7.65,-7.83,0,*65
1545890609.73,6428,0.0,0.0,-6.95,-7.73,-7.83,0,*6D
1545890610.97,6429,0.0,0.0,-6.95,-7.77,-7.95,0,*6F
1545890612.2,6430,0.0,0.0,-6.95,-7.77,-8.03,0,*67
1545890614.69,6432,0.0,0.0,-6.95,-7.73,-7.95,0,*61
1545890615.9,6433,0.0,0.0,-6.99,-7.83,-7.95,0,*63
1545890617.12,6434,0.0,0.0,-6.99,-7.83,-7.99,0,*68
1545890618.34,6435,0.0,0.0,-6.99,-7.83,-8.07,0,*61
1545890619.58,6436,0.0,0.0,-7.01,-7.83,-7.99,0,*6A
1545890620.79,6437,0.0,0.0,-6.99,-7.83,-7.99,0,*6B
1545890622.01,6438,0.0,0.0,-6.99,-7.83,-7.99,0,*64
1545890623.25,6439,0.0,0.0,-6.95,-7.77,-7.95,0,*6E
1545890624.47,6440,0.0,0.0,-6.99,-7.83,-8.07,0,*63
1545890629.4,6444,0.0,0.0,-6.99,-7.83,-7.99,0,*6F
1545890630.62,6445,0.0,0.0,-6.99,-7.83,-8.07,0,*66
1545890631.85,6446,0.0,0.0,-6.99,-7.83,-8.07,0,*65
1545890633.06,6447,0.0,0.0,-6.99,-7.83,-7.99,0,*6C
1545890634.28,6448,0.0,0.0,-6.99,-7.83,-7.99,0,*63
1545890635.52,6449,0.0,0.0,-6.99,-7.77,-7.99,0,*69
1545890636.73,6450,0.0,0.0,-6.99,-7.83,-7.95,0,*66
1545890637.97,6451,0.0,0.0,-6.95,-7.77,-7.91,0,*64
1545890639.19,6452,0.0,0.0,-6.95,-7.73,-7.83,0,*60
1545890642.85,6455,0.0,0.0,-6.99,-7.77,-7.87,0,*6B
1545890644.09,6456,0.0,0.0,-6.99,-7.77,-7.95,0,*6B
1545890645.3,6457,0.0,0.0,-6.99,-7.83,-7.95,0,*61
1545890646.56,6458,0.0,0.0,-7.01,-7.77,-7.95,0,*65
1545890647.78,6459,0.0,0.0,-6.99,-7.77,-7.87,0,*67
1545890649.02,6460,0.0,0.0,-6.99,-7.77,-7.95,0,*6E
1545890650.23,6461,0.0,0.0,-6.99,-7.83,-7.95,0,*64
1545890651.47,6462,0.0,0.0,-6.99,-7.77,-8.07,0,*68
1545890652.71,6463,0.0,0.0,-6.99,-7.77,-7.99,0,*61
1545890656.34,6466,0.0,0.0,-6.99,-7.83,-7.95,0,*63
1545890657.56,6467,0.0,0.0,-6.99,-7.77,-7.87,0,*6A
1545890658.77,6468,0.0,0.0,-6.99,-7.69,-7.87,0,*6A
1545890659.99,6469,0.0,0.0,-6.99,-7.69,-7.83,0,*6F
1545890662.45,6471,0.0,0.0,-6.99,-7.65,-7.83,0,*6A
1545890663.69,6472,0.0,0.0,-6.99,-7.69,-7.95,0,*62
1545890664.91,6473,0.0,0.0,-6.99,-7.77,-7.87,0,*6F
1545890666.13,6474,0.0,0.0,-6.99,-7.69,-7.87,0,*67
1545890667.34,6475,0.0,0.0,-6.99,-7.77,-7.87,0,*69
1545890668.58,6476,0.0,0.0,-6.99,-7.69,-7.95,0,*66
1545890669.8,6477,0.0,0.0,-6.99,-7.77,-7.87,0,*6B
1545890671.01,6478,0.0,0.0,-6.99,-7.69,-7.87,0,*6B
1545890672.23,6479,0.0,0.0,-6.99,-7.69,-7.87,0,*6A
1545890673.45,6480,0.0,0.0,-6.99,-7.69,-7.87,0,*6C
1545890674.67,6481,0.0,0.0,-6.99,-7.65,-7.87,0,*61
1545890675.89,6482,0.0,0.0,-6.99,-7.65,-7.87,0,*62
1545890677.11,6483,0.0,0.0,-6.99,-7.69,-7.87,0,*6F
1545890678.32,6484,0.0,0.0,-6.99,-7.69,-7.87,0,*68
1545890680.76,6486,0.0,0.0,-6.99,-7.65,-7.87,0,*66
1545890681.99,6487,0.0,0.0,-6.99,-7.65,-7.83,0,*63
1545890683.21,6488,0.0,0.0,-6.99,-7.65,-7.83,0,*6C
1545890684.43,6489,0.0,0.0,-6.99,-7.65,-7.83,0,*6D
1545890685.65,6490,0.0,0.0,-6.99,-7.65,-7.83,0,*65
1545890686.89,6491,0.0,0.0,-6.95,-7.61,-7.77,0,*67
1545890688.14,6492,0.0,0.0,-6.95,-7.61,-7.77,0,*64
1545890689.38,6493,0.0,0.0,-6.95,-7.61,-7.77,0,*65
1545890690.6,6494,0.0,0.0,-6.95,-7.53,-7.77,0,*63
1545890691.82,6495,0.0,0.0,-6.95,-7.53,-7.61,0,*65
1545890694.25,6497,0.0,0.0,-6.95,-7.49,-7.73,0,*6F
1545890695.46,6498,0.0,0.0,-6.95,-7.49,-7.73,0,*60
1545890696.71,6499,0.0,0.0,-6.93,-7.53,-7.65,0,*6B
1545890697.95,6500,0.0,0.0,-6.93,-7.49,-7.65,0,*61
1545890700.4,6502,0.0,0.0,-6.93,-7.49,-7.73,0,*64
1545890701.65,6503,0.0,0.0,-6.93,-7.53,-7.73,0,*6E
1545890702.89,6504,0.0,0.0,-6.93,-7.53,-7.73,0,*69
1545890704.11,6505,0.0,0.0,-6.95,-7.53,-7.77,0,*6A
1545890705.32,6506,0.0,0.0,-6.95,-7.53,-7.77,0,*69
1545890706.54,6507,0.0,0.0,-6.95,-7.53,-7.77,0,*68
1545890707.76,6508,0.0,0.0,-6.95,-7.53,-7.73,0,*63
1545890709.0,6509,0.0,0.0,-6.95,-7.61,-7.73,0,*63
1545890710.25,6510,0.0,0.0,-6.93,-7.53,-7.61,0,*6F
1545890711.49,6511,0.0,0.0,-6.93,-7.49,-7.61,0,*65
1545890712.71,6512,0.0,0.0,-6.95,-7.49,-7.61,0,*60
1545890713.93,6513,0.0,0.0,-6.95,-7.49,-7.65,0,*65
1545890715.14,6514,0.0,0.0,-6.95,-7.53,-7.65,0,*69
1545890716.36,6515,0.0,0.0,-6.95,-7.49,-7.77,0,*60
1545890717.6,6516,0.0,0.0,-6.93,-7.53,-7.73,0,*6A
1545890718.84,6517,0.0,0.0,-6.93,-7.53,-7.65,0,*6C
1545890720.06,6518,0.0,0.0,-6.95,-7.49,-7.65,0,*6E
1545890721.3,6519,0.0,0.0,-6.93,-7.53,-7.73,0,*65
1545890722.52,6520,0.0,0.0,-6.95,-7.53,-7.61,0,*6A
1545890723.79,6521,0.0,0.0,-6.93,-7.39,-7.61,0,*61
1545890725.03,6522,0.0,0.0,-6.93,-7.53,-7.65,0,*6A
1545890726.24,6523,0.0,0.0,-6.95,-7.49,-7.73,0,*61
1545890727.46,6524,0.0,0.0,-6.95,-7.53,-7.65,0,*6A
1545890728.7,6525,0.0,0.0,-6.93,-7.49,-7.65,0,*66
1545890732.43,6528,0.0,0.0,-6.93,-7.53,-7.61,0,*64
1545890733.67,6529,0.0,0.0,-6.93,-7.49,-7.73,0,*6D
1545890734.91,6530,0.0,0.0,-6.93,-7.49,-7.61,0,*66
1545890736.15,6531,0.0,0.0,-6.93,-7.53,-7.73,0,*6F
1545890738.58,6533,0.0,0.0,-6.93,-7.49,-7.53,0,*64
1545890739.8,6534,0.0,0.0,-6.95,-7.35,-7.53,0,*6E
1545890741.03,6535,0.0,0.0,-6.93,-7.39,-7.49,0,*6E
1545890742.3,6536,0.0,0.0,-6.93,-7.39,-7.61,0,*67
1545890744.8,6538,0.0,0.0,-6.93,-7.49,-7.65,0,*6A
1545890746.04,6539,0.0,0.0,-6.93,-7.49,-7.65,0,*6B
1545890747.28,6540,0.0,0.0,-6.93,-7.53,-7.65,0,*6E
1545890748.53,6541,0.0,0.0,-6.93,-7.49,-7.65,0,*64
1545890751.01,6543,0.0,0.0,-6.93,-7.53,-7.61,0,*69
1545890752.25,6544,0.0,0.0,-6.93,-7.49,-7.65,0,*61
1545890753.53,6545,0.0,0.0,-6.91,-7.43,-7.61,0,*6C
1545890754.78,6546,0.0,0.0,-6.91,-7.49,-7.61,0,*65
1545890756.02,6547,0.0,0.0,-6.91,-7.49,-7.69,0,*6C
1545890757.29,6548,0.0,0.0,-6.91,-7.43,-7.61,0,*61
1545890758.57,6549,0.0,0.0,-6.87,-7.43,-7.65,0,*63
1545890759.84,6550,0.0,0.0,-6.91,-7.43,-7.73,0,*6B
1545890761.12,6551,0.0,0.0,-6.91,-7.57,-7.69,0,*64
1545890764.93,6554,0.0,0.0,-6.91,-7.43,-7.73,0,*6F
1545890766.18,6555,0.0,0.0,-6.91,-7.49,-7.73,0,*64
1545890767.42,6556,0.0,0.0,-6.91,-7.49,-7.73,0,*67
1545890768.66,6557,0.0,0.0,-6.91,-7.49,-7.73,0,*66
1545890769.94,6558,0.0,0.0,-6.87,-7.43,-7.65,0,*63
1545890771.18,6559,0.0,0.0,-6.91,-7.49,-7.69,0,*63
1545890772.46,6560,0.0,0.0,-6.91,-7.43,-7.61,0,*6B
1545890773.73,6561,0.0,0.0,-6.91,-7.43,-7.61,0,*6A
1545890775.01,6562,0.0,0.0,-6.87,-7.35,-7.57,0,*6A
1545890778.8,6565,0.0,0.0,-6.91,-7.49,-7.61,0,*64
1545890780.07,6566,0.0,0.0,-6.87,-7.39,-7.57,0,*62
1545890781.33,6567,0.0,0.0,-6.87,-7.39,-7.69,0,*6E
1545890782.57,6568,0.0,0.0,-6.87,-7.39,-7.53,0,*68
1545890783.84,6569,0.0,0.0,-6.87,-7.39,-7.43,0,*68
1545890785.11,6570,0.0,0.0,-6.87,-7.39,-7.43,0,*60
1545890786.38,6571,0.0,0.0,-6.87,-7.39,-7.43,0,*61
1545890787.62,6572,0.0,0.0,-6.91,-7.35,-7.49,0,*63
1545890788.89,6573,0.0,0.0,-6.91,-7.31,-7.61,0,*6C
1545890790.13,6574,0.0,0.0,-6.87,-7.39,-7.53,0,*65
1545890791.4,6575,0.0,0.0,-6.91,-7.35,-7.69,0,*66
1545890792.68,6576,0.0,0.0,-6.91,-7.35,-7.61,0,*6D
1545890793.94,6577,0.0,0.0,-6.87,-7.39,-7.69,0,*6F
1545890795.21,6578,0.0,0.0,-6.87,-7.43,-7.65,0,*61
1545890796.46,6579,0.0,0.0,-6.91,-7.49,-7.61,0,*69
1545890797.73,6580,0.0,0.0,-6.87,-7.43,-7.69,0,*6A
1545890798.97,6581,0.0,0.0,-6.87,-7.53,-7.65,0,*66
1545890800.25,6582,0.0,0.0,-6.87,-7.43,-7.65,0,*64
1545890801.49,6583,0.0,0.0,-6.91,-7.49,-7.69,0,*64
1545890802.77,6584,0.0,0.0,-6.91,-7.57,-7.57,0,*61
1545890804.04,6585,0.0,0.0,-6.87,-7.57,-7.57,0,*67
1545890805.29,6586,0.0,0.0,-6.87,-7.53,-7.65,0,*61
1545890806.53,6587,0.0,0.0,-6.91,-7.49,-7.69,0,*60
1545890807.8,6588,0.0,0.0,-6.87,-7.43,-7.65,0,*6E
1545890809.07,6589,0.0,0.0,-6.87,-7.43,-7.69,0,*63
1545890810.35,6590,0.0,0.0,-6.87,-7.43,-7.65,0,*67
1545890811.62,6591,0.0,0.0,-6.87,-7.57,-7.73,0,*64
1545890812.87,6592,0.0,0.0,-6.87,-7.53,-7.73,0,*63
1545890814.12,6593,0.0,0.0,-6.87,-7.53,-7.73,0,*62
1545890815.4,6594,0.0,0.0,-6.87,-7.57,-7.73,0,*61
1545890816.64,6595,0.0,0.0,-6.87,-7.53,-7.73,0,*64
1545890817.89,6596,0.0,0.0,-6.87,-7.53,-7.73,0,*67
1545890819.14,6597,0.0,0.0,-6.87,-7.57,-7.83,0,*6D
1545890820.42,6598,0.0,0.0,-6.91,-7.61,-7.73,0,*6F
1545890821.67,6599,0.0,0.0,-6.87,-7.53,-7.73,0,*68
1545890822.94,6600,0.0,0.0,-6.91,-7.57,-7.77,0,*6C
1545890824.22,6601,0.0,0.0,-6.87,-7.57,-7.73,0,*6E
1545890825.48,6602,0.0,0.0,-6.87,-7.57,-7.83,0,*62
1545890826.73,6603,0.0,0.0,-6.87,-7.57,-7.83,0,*63
1545890827.98,6604,0.0,0.0,-6.87,-7.69,-7.83,0,*69
1545890829.23,6605,0.0,0.0,-6.87,-7.69,-7.83,0,*68
1545890830.48,6606,0.0,0.0,-6.91,-7.73,-7.87,0,*63
1545890831.73,6607,0.0,0.0,-6.87,-7.65,-7.83,0,*66
1545890832.98,6608,0.0,0.0,-6.87,-7.69,-7.87,0,*61
1545890834.23,6609,0.0,0.0,-6.87,-7.65,-7.87,0,*6C
1545890835.5,6610,0.0,0.0,-6.87,-7.65,-7.95,0,*67
1545890836.74,6611,0.0,0.0,-6.87,-7.69,-7.87,0,*69
1545890837.99,6612,0.0,0.0,-6.87,-7.65,-7.87,0,*66
1545890839.27,6613,0.0,0.0,-6.91,-7.69,-7.91,0,*6B
1545890840.53,6614,0.0,0.0,-6.87,-7.69,-7.95,0,*6F
1545890841.8,6615,0.0,0.0,-6.91,-7.69,-7.91,0,*6D
1545890843.08,6616,0.0,0.0,-6.91,-7.73,-7.91,0,*65
1545890844.33,6617,0.0,0.0,-6.87,-7.57,-7.87,0,*62
1545890845.58,6618,0.0,0.0,-6.87,-7.65,-7.87,0,*6C
1545890846.83,6619,0.0,0.0,-6.87,-7.65,-7.87,0,*6D
1545890848.08,6620,0.0,0.0,-6.87,-7.57,-7.83,0,*62
1545890849.34,6621,0.0,0.0,-6.87,-7.57,-7.83,0,*63
1545890850.61,6622,0.0,0.0,-6.87,-7.57,-7.95,0,*67
1545890851.86,6623,0.0,0.0,-6.87,-7.57,-7.83,0,*61
1545890854.36,6625,0.0,0.0,-6.91,-7.61,-7.91,0,*66
1545890855.63,6626,0.0,0.0,-6.91,-7.61,-7.99,0,*6D
1545890856.91,6627,0.0,0.0,-6.87,-7.57,-7.99,0,*6E
1545890858.18,6628,0.0,0.0,-6.87,-7.65,-7.99,0,*60
1545890859.43,6629,0.0,0.0,-6.87,-7.69,-7.87,0,*62
1545890860.68,6630,0.0,0.0,-6.87,-7.65,-7.83,0,*62
1545890861.93,6631,0.0,0.0,-6.87,-7.65,-7.87,0,*67
1545890863.19,6632,0.0,0.0,-6.91,-7.69,-8.03,0,*6C
1545890864.46,6633,0.0,0.0,-6.87,-7.69,-7.95,0,*6A
1545890865.72,6634,0.0,0.0,-6.87,-7.69,-7.95,0,*6D
1545890866.99,6635,0.0,0.0,-6.87,-7.65,-7.99,0,*6C
1545890868.26,6636,0.0,0.0,-6.87,-7.69,-7.99,0,*63
1545890869.54,6637,0.0,0.0,-6.91,-7.73,-8.11,0,*61
1545890870.81,6638,0.0,0.0,-6.87,-7.69,-8.07,0,*65
1545890872.08,6639,0.0,0.0,-6.87,-7.69,-7.99,0,*6C
1545890873.36,6640,0.0,0.0,-6.87,-7.73,-7.99,0,*69
1545890874.63,6641,0.0,0.0,-6.87,-7.73,-7.99,0,*68
1545890875.91,6642,0.0,0.0,-6.87,-7.73,-7.95,0,*67
1545890877.18,6643,0.0,0.0,-6.87,-7.65,-7.95,0,*61
1545890878.42,6644,0.0,0.0,-6.87,-7.69,-7.87,0,*69
1545890879.67,6645,0.0,0.0,-6.87,-7.65,-7.87,0,*64
1545890880.95,6646,0.0,0.0,-6.91,-7.73,-7.91,0,*60
1545890882.21,6647,0.0,0.0,-6.87,-7.69,-7.95,0,*69
1545890883.48,6648,0.0,0.0,-6.87,-7.69,-7.99,0,*6A
1545890884.76,6649,0.0,0.0,-6.87,-7.65,-8.07,0,*6F
1545890886.04,6650,0.0,0.0,-6.87,-7.65,-8.07,0,*67
1545890887.31,6651,0.0,0.0,-6.91,-7.69,-8.03,0,*69
1545890888.57,6652,0.0,0.0,-6.87,-7.69,-7.99,0,*61
1545890889.84,6653,0.0,0.0,-6.91,-7.69,-7.99,0,*67
1545890891.12,6654,0.0,0.0,-6.91,-7.73,-7.91,0,*63
1545890892.39,6655,0.0,0.0,-6.91,-7.69,-7.99,0,*61
1545890893.63,6656,0.0,0.0,-6.87,-7.69,-7.87,0,*6A
1545890894.9,6657,0.0,0.0,-6.87,-7.69,-7.95,0,*68
1545890896.15,6658,0.0,0.0,-6.91,-7.69,-7.83,0,*67
1545890897.4,6659,0.0,0.0,-6.87,-7.69,-7.83,0,*61
1545890898.65,6660,0.0,0.0,-6.87,-7.65,-7.83,0,*67
1545890899.92,6661,0.0,0.0,-6.91,-7.69,-7.77,0,*66
1545890901.17,6662,0.0,0.0,-6.87,-7.69,-7.83,0,*69
1545890902.41,6663,0.0,0.0,-6.87,-7.69,-7.83,0,*68
1545890904.96,665,0.0,0.0,-6.87,-7.65,-7.73,0,*6D
1545890906.23,6666,0.0,0.0,-6.91,-7.69,-7.73,0,*65
1545890907.5,6667,0.0,0.0,-6.91,-7.61,-7.69,0,*67
1545890908.78,6668,0.0,0.0,-6.87,-7.57,-7.65,0,*66
1545890910.05,6669,0.0,0.0,-6.87,-7.57,-7.69,0,*6B
1545890911.32,6670,0.0,0.0,-6.91,-7.61,-7.69,0,*61
1545890912.6,6671,0.0,0.0,-6.87,-7.57,-7.69,0,*62
1545890913.87,6672,0.0,0.0,-6.91,-7.61,-7.77,0,*6C
1545890915.15,6673,0.0,0.0,-6.87,-7.65,-7.73,0,*6A
1545890916.42,6674,0.0,0.0,-6.87,-7.65,-7.69,0,*66
1545890917.69,6675,0.0,0.0,-6.91,-7.61,-7.77,0,*6B
1545890918.96,6676,0.0,0.0,-6.87,-7.65,-7.77,0,*6B
1545890920.23,6677,0.0,0.0,-6.87,-7.65,-7.69,0,*65
1545890921.48,6678,0.0,0.0,-6.91,-7.69,-7.87,0,*61
1545890922.73,6679,0.0,0.0,-6.87,-7.65,-7.83,0,*6F
1545890923.98,6680,0.0,0.0,-6.87,-7.69,-7.87,0,*61
1545890925.23,6681,0.0,0.0,-6.87,-7.65,-7.87,0,*6C
1545890926.49,6682,0.0,0.0,-6.87,-7.69,-8.03,0,*60
1545890927.77,6683,0.0,0.0,-6.87,-7.69,-8.07,0,*65
1545890929.05,6684,0.0,0.0,-6.87,-7.69,-8.07,0,*62
1545890930.32,6685,0.0,0.0,-6.87,-7.69,-8.07,0,*63
1545890931.59,6686,0.0,0.0,-6.87,-7.69,-8.11,0,*67
1545890932.84,6687,0.0,0.0,-6.91,-7.73,-8.17,0,*6C
1545890934.12,6688,0.0,0.0,-6.91,-7.73,-8.11,0,*65
1545890935.39,6689,0.0,0.0,-6.87,-7.65,-8.07,0,*63
1545890936.64,6690,0.0,0.0,-6.87,-7.69,-8.21,0,*63
1545890937.88,6691,0.0,0.0,-6.87,-7.69,-8.21,0,*62
1545890939.13,6692,0.0,0.0,-6.91,-7.73,-8.25,0,*69
1545890940.37,6693,0.0,0.0,-6.91,-7.77,-8.25,0,*6C
1545890941.62,6694,0.0,0.0,-6.91,-7.77,-8.17,0,*6A
1545890942.86,6695,0.0,0.0,-6.91,-7.77,-8.25,0,*6A
1545890944.14,6696,0.0,0.0,-6.87,-7.73,-8.11,0,*6D
1545890945.41,6697,0.0,0.0,-6.87,-7.73,-8.11,0,*6C
1545890946.68,6698,0.0,0.0,-6.91,-7.77,-8.11,0,*60
1545890947.96,6699,0.0,0.0,-6.87,-7.73,-7.99,0,*6D
1545890949.2,6700,0.0,0.0,-6.91,-7.77,-8.17,0,*66
1545890950.44,6701,0.0,0.0,-6.91,-7.77,-8.17,0,*67
1545890951.7,6702,0.0,0.0,-6.87,-7.73,-8.21,0,*62
1545890952.94,6703,0.0,0.0,-6.91,-7.77,-8.25,0,*64
1545890954.19,6704,0.0,0.0,-6.87,-7.83,-8.11,0,*68
1545890957.96,6707,0.0,0.0,-6.87,-7.73,-7.99,0,*6B
1545890959.23,6708,0.0,0.0,-6.87,-7.73,-7.99,0,*64
1545890960.51,6709,0.0,0.0,-6.91,-7.73,-8.11,0,*6D
1545890961.78,6710,0.0,0.0,-6.87,-7.69,-8.11,0,*69
1545890963.03,6711,0.0,0.0,-6.91,-7.73,-8.17,0,*62
1545890964.3,6712,0.0,0.0,-6.87,-7.69,-8.11,0,*6B
1545890965.57,6713,0.0,0.0,-6.87,-7.73,-8.11,0,*61
1545890966.84,6714,0.0,0.0,-6.91,-7.77,-8.03,0,*66
1545890968.11,6715,0.0,0.0,-6.91,-7.77,-7.91,0,*63
1545890969.39,6716,0.0,0.0,-6.91,-7.73,-7.77,0,*6C
1545890970.67,6717,0.0,0.0,-6.91,-7.73,-7.77,0,*6D
1545890971.94,6718,0.0,0.0,-6.91,-7.69,-7.77,0,*69
1545890973.21,6719,0.0,0.0,-6.87,-7.57,-7.73,0,*66
1545890974.49,6720,0.0,0.0,-6.91,-7.57,-7.73,0,*6B
1545890975.75,6721,0.0,0.0,-6.87,-7.57,-7.83,0,*62
1545890977.0,6722,0.0,0.0,-6.87,-7.57,-7.83,0,*61
1545890978.28,6723,0.0,0.0,-6.91,-7.61,-7.77,0,*69
1545890979.55,6724,0.0,0.0,-6.87,-7.57,-7.73,0,*68
1545890980.8,6725,0.0,0.0,-6.87,-7.53,-7.73,0,*6D
1545890982.05,6726,0.0,0.0,-6.91,-7.61,-7.87,0,*63
1545890983.32,6727,0.0,0.0,-6.91,-7.69,-7.77,0,*65
1545890984.58,6728,0.0,0.0,-6.91,-7.61,-7.83,0,*69
1545890985.85,6729,0.0,0.0,-6.87,-7.57,-7.73,0,*65
1545890987.13,6730,0.0,0.0,-6.87,-7.57,-7.69,0,*66
1545890989.65,6732,0.0,0.0,-6.87,-7.53,-7.57,0,*6D
1545890990.92,6733,0.0,0.0,-6.87,-7.43,-7.65,0,*6C
1545890992.19,6734,0.0,0.0,-6.87,-7.43,-7.65,0,*6B
1545890993.44,6735,0.0,0.0,-6.91,-7.49,-7.73,0,*60
1545890994.69,6736,0.0,0.0,-6.87,-7.57,-7.83,0,*64
1545890995.95,6737,0.0,0.0,-6.87,-7.57,-7.83,0,*65
1545890997.2,6738,0.0,0.0,-6.87,-7.57,-7.83,0,*6A
1545890998.48,6739,0.0,0.0,-6.87,-7.57,-7.73,0,*64
1545890999.76,6740,0.0,0.0,-6.87,-7.57,-7.73,0,*6A
1545891001.03,6741,0.0,0.0,-6.87,-7.65,-7.73,0,*6A
1545891003.56,6743,0.0,0.0,-6.91,-7.73,-7.87,0,*63
1545891004.83,6744,0.0,0.0,-6.87,-7.65,-7.95,0,*67
1545891006.1,6745,0.0,0.0,-6.87,-7.65,-7.99,0,*6A
1545891007.35,6746,0.0,0.0,-6.91,-7.73,-7.87,0,*66
1545891008.62,6747,0.0,0.0,-6.87,-7.65,-7.95,0,*64
1545891009.9,6748,0.0,0.0,-6.91,-7.73,-8.11,0,*68
1545891011.17,6749,0.0,0.0,-6.91,-7.73,-8.03,0,*6A
1545891012.41,6750,0.0,0.0,-6.91,-7.77,-8.17,0,*63
1545891013.66,6751,0.0,0.0,-6.87,-7.73,-8.25,0,*60
1545891014.9,6752,0.0,0.0,-6.87,-7.77,-8.25,0,*67
1545891016.15,6753,0.0,0.0,-6.87,-7.83,-8.11,0,*6A
1545891017.43,6754,0.0,0.0,-6.87,-7.73,-7.99,0,*6D
1545891018.7,6755,0.0,0.0,-6.87,-7.73,-7.99,0,*6C
1545891019.97,6756,0.0,0.0,-6.87,-7.73,-7.99,0,*6F
1545891021.22,6757,0.0,0.0,-6.87,-7.69,-8.21,0,*69
1545891022.46,6758,0.0,0.0,-6.87,-7.69,-8.21,0,*66
1545891023.69,6759,0.0,0.0,-6.91,-7.87,-8.37,0,*67
1545891024.91,6760,0.0,0.0,-6.87,-7.83,-8.25,0,*6D
1545891026.12,6761,0.0,0.0,-6.87,-7.83,-8.33,0,*6B
1545891027.34,6762,0.0,0.0,-6.91,-7.87,-8.29,0,*60
1545891028.59,6763,0.0,0.0,-6.87,-7.83,-8.11,0,*69
1545891029.81,6764,0.0,0.0,-6.87,-7.83,-8.21,0,*6D
1545891031.05,6765,0.0,0.0,-6.87,-7.73,-8.25,0,*67
1545891032.3,6766,0.0,0.0,-6.91,-7.77,-8.29,0,*6B
1545891033.54,6767,0.0,0.0,-6.87,-7.73,-8.33,0,*62
1545891034.77,6768,0.0,0.0,-6.91,-7.87,-8.37,0,*65